[[{"header":{"parameterUnit":"m.s-1","parameterCategory":1,"la1":30.2991,"la2":30.254,"lo1":-89.0895,"lo2":-89.0444,"dy":0.0017,"dx":0.0017,"nx":28,"ny":28,"refTime":"2025-12-25T03:00:00:Z","depth":0,"parameterNumber":2,"parameterNumberName":"U-component_of_WINDS"},"data":[0,0,0,0,0,0,0,0,0,0,0,0,0,0,0,0,0,0,0,0,0,0,0,0,0,0,0,0,0,0,0,0,0,0,0,0,0,0,0,0,0,0,0,0,0,0,0,0,0,0,0,0,0,0,0,0,0,0,1.2416,1.2418,0,1.2603,1.2605,1.2607,1.2664,1.2663,1.2662,1.2661,1.2857,1.2863,1.2869,0,0,0,0,0,0,0,0,0,0,0,0,0,1.2113,1.2118,1.2416,1.2418,1.2421,1.2603,1.2605,1.2608,1.2664,1.2663,1.2662,1.2661,1.2855,1.2862,1.2869,0,0,0,0,0,0,0,0,0,0,0,0,0,1.2266,1.212,1.2416,1.2471,1.2478,1.2602,1.2605,1.2609,1.2665,1.2663,1.2662,1.2661,1.2853,1.2861,1.287,1.2955,0,0,1.2898,1.2902,0,0,0,0,0,0,0,0,1.2258,1.2278,1.246,1.2467,1.2475,1.2609,1.257,1.2725,1.2665,1.2594,1.2661,1.266,1.2776,1.2791,1.2829,1.2964,1.2973,1.2899,1.2905,1.2909,1.2911,0,0,0,0,0,0,0,1.2247,1.227,1.249,1.2463,1.2472,1.2488,1.2508,1.26,1.2691,1.26,1.2604,1.2626,1.278,1.282,1.2834,1.2975,1.2899,1.2907,1.2913,1.2916,1.319,1.3192,0,0,0,0,0,0,1.2226,1.2261,1.2484,1.2496,1.236,1.2494,1.2517,1.2567,1.269,1.2707,1.2627,1.2627,1.2806,1.2824,1.2842,1.295,1.2909,1.2917,1.2922,1.3189,1.3191,1.3193,0,0,0,0,0,0,1.222,1.2246,1.2477,1.238,1.241,1.2501,1.2557,1.2572,1.2613,1.271,1.2727,1.2651,1.2805,1.2829,1.2926,1.2957,1.2921,1.2929,1.3187,1.3189,1.3192,1.3166,0,0,0,0,0,0,1.2211,1.2243,1.2275,1.238,1.2415,1.2557,1.2559,1.2576,1.2628,1.2631,1.2738,1.2754,1.2806,1.2912,1.2935,1.2969,1.2937,1.3184,1.3188,1.3191,1.3164,1.3167,1.317,0,0,0,0,0,1.22,1.2261,1.2276,1.2303,1.2457,1.2559,1.2579,1.2636,1.263,1.2664,1.2726,1.2751,1.295,1.2922,1.2948,1.2985,1.3183,1.3187,1.3191,1.3163,1.3167,1.317,0,0,0,0,0,0,1.2159,1.2275,1.2294,1.2391,1.2464,1.2568,1.2612,1.2638,1.2716,1.2716,1.2785,1.2809,1.2902,1.2953,1.292,1.3074,1.3067,1.3077,1.3037,1.3041,1.3044,1.303,1.2944,0,0,0,0,0,1.216,1.2232,1.2331,1.2407,1.2442,1.2521,1.2567,1.2605,1.2685,1.2716,1.2786,1.2863,1.2944,1.2995,1.3074,1.3172,1.3197,1.321,1.3213,1.3215,1.3222,1.3279,1.3287,1.3206,1.3206,1.3206,0,0,1.2166,1.2238,1.228,1.24,1.2462,1.2536,1.2547,1.2624,1.2681,1.2729,1.2825,1.2879,1.297,1.3068,1.3115,1.3114,1.325,1.322,1.322,1.3228,1.3284,1.3292,1.3299,1.3209,1.3209,1.3208,0,0,1.2213,1.2275,1.2345,1.2406,1.2499,1.255,1.2567,1.2668,1.2705,1.2802,1.284,1.2909,1.3045,1.3109,1.3159,1.3231,1.3257,1.3255,1.3269,1.3324,1.333,1.3336,1.3364,1.3372,1.3262,1.3262,1.3262,0,1.2209,1.2321,1.2379,1.2455,1.2507,1.2553,1.2625,1.2682,1.2796,1.2832,1.2829,1.3002,1.3066,1.3181,1.3198,1.3237,1.326,1.3243,1.3324,1.3331,1.3338,1.3364,1.3374,1.3261,1.3261,1.3261,1.3261,0,1.2311,1.2388,1.2434,1.2542,1.2599,1.2673,1.2744,1.2796,1.2828,1.2881,1.298,1.3059,1.3156,1.3185,1.3218,1.3305,1.3302,1.331,1.3305,1.3343,1.337,1.338,1.326,1.326,1.326,1.3261,0,0,1.2339,1.2477,1.2493,1.2543,1.2648,1.271,1.2786,1.2879,1.2923,1.3,1.3067,1.3182,1.3191,1.3248,1.3289,1.3336,1.339,1.334,1.3343,1.3348,1.3492,1.3485,1.3496,1.3407,1.3409,1.3411,1.3485,0,1.2401,1.2538,1.2593,1.2705,1.2778,1.2822,1.2889,1.2962,1.3013,1.3083,1.314,1.3221,1.3226,1.3261,1.331,1.3373,1.342,1.3368,1.3472,1.3475,1.3449,1.351,1.3503,1.3569,1.3495,1.3497,1.3498,0,1.2492,1.2569,1.2688,1.2785,1.2817,1.2876,1.2966,1.3032,1.3116,1.315,1.3214,1.3252,1.3335,1.3323,1.3441,1.3404,1.345,1.3488,1.3492,1.3505,1.349,1.3526,1.3591,1.3601,1.3515,1.3513,1.3512,0,1.2502,1.2635,1.2724,1.2765,1.288,1.2921,1.2971,1.3053,1.3106,1.3185,1.322,1.3308,1.3357,1.3425,1.3486,1.3472,1.3599,1.3591,1.3631,1.3629,1.3657,1.3655,1.3732,1.3684,1.3683,1.3683,1.3683,0,1.2567,1.2638,1.273,1.2785,1.2866,1.2929,1.3009,1.3062,1.3135,1.3202,1.3246,1.3308,1.3385,1.3457,1.3506,1.3597,1.3618,1.3649,1.3662,1.3647,1.3643,1.3679,1.3676,1.3686,1.3685,1.3685,1.3684,0,1.2592,1.2656,1.2756,1.2856,1.2883,1.2939,1.3026,1.3082,1.3134,1.3219,1.3243,1.3326,1.3414,1.3481,1.3596,1.3629,1.3726,1.3738,1.3697,1.3703,1.374,1.3736,1.3844,1.3862,1.38,1.38,1.3801,0,1.263,1.2686,1.2792,1.2839,1.2888,1.2964,1.3018,1.3082,1.3136,1.3236,1.328,1.3371,1.3447,1.3585,1.3657,1.3746,1.3762,1.3793,1.3775,1.3758,1.3764,1.3761,1.3767,1.3796,1.3796,1.3797,1.3797,0,1.269,1.2719,1.2794,1.288,1.2943,1.3014,1.3086,1.3123,1.32,1.326,1.3349,1.3408,1.3525,1.3615,1.371,1.3764,1.3794,1.3802,1.3816,1.3801,1.3776,1.3792,1.3705,1.3799,1.3799,1.3799,1.3799,1.3799,1.2724,1.2776,1.2859,1.2941,1.3002,1.3069,1.3126,1.3186,1.3261,1.336,1.3393,1.3486,1.357,1.3701,1.3756,1.3831,1.3832,1.3852,1.3857,1.3862,1.3861,1.3762,1.3848,1.3848,1.3848,1.3848,1.3848,0,1.2788,1.2843,1.2918,1.3017,1.3083,1.3103,1.3185,1.3238,1.3319,1.3394,1.3467,1.3571,1.3659,1.3737,1.3829,1.3874,1.389,1.3896,1.3895,1.3907,1.3854,1.3833,1.3882,1.3882,1.3882,1.3882,1.3882,1.3882,1.2829,1.2918,1.2957,1.3078,1.3133,1.3224,1.3268,1.3331,1.3391,1.3504,1.3577,1.3627,1.3704,1.3802,1.3884,1.3905,1.3938,1.394,1.3965,1.3914,1.391,1.3906,1.3887,1.3946,1.3946,1.4012,1.4013,1.4013]},{"header":{"parameterUnit":"m.s-1","parameterCategory":1,"la1":30.2991,"la2":30.254,"lo1":-89.0895,"lo2":-89.0444,"dy":0.0017,"dx":0.0017,"nx":28,"ny":28,"refTime":"2025-12-25T03:00:00:Z","depth":0,"parameterNumber":3,"parameterNumberName":"V-component_of_WINDS"},"data":[0,0,0,0,0,0,0,0,0,0,0,0,0,0,0,0,0,0,0,0,0,0,0,0,0,0,0,0,0,0,0,0,0,0,0,0,0,0,0,0,0,0,0,0,0,0,0,0,0,0,0,0,0,0,0,0,0,0,1.6,1.6,0,1.5955,1.5955,1.5954,1.5912,1.5911,1.5911,1.591,1.5862,1.5861,1.586,0,0,0,0,0,0,0,0,0,0,0,0,0,1.6048,1.6047,1.6,1.6,1.5999,1.5955,1.5955,1.5954,1.5912,1.5911,1.5911,1.591,1.5862,1.5861,1.586,0,0,0,0,0,0,0,0,0,0,0,0,0,1.6017,1.6047,1.6,1.5973,1.597,1.5955,1.5954,1.5954,1.5912,1.5911,1.591,1.591,1.5862,1.5861,1.586,1.5868,0,0,1.5856,1.5856,0,0,0,0,0,0,0,0,1.6019,1.6016,1.5977,1.5975,1.5971,1.5938,1.5954,1.5925,1.5912,1.5934,1.591,1.5909,1.5888,1.5884,1.5878,1.5866,1.5864,1.5856,1.5856,1.5855,1.5855,0,0,0,0,0,0,0,1.6021,1.6017,1.5982,1.5977,1.5973,1.5962,1.5957,1.5948,1.5916,1.5932,1.5929,1.5924,1.5886,1.5879,1.5876,1.5863,1.5856,1.5855,1.5855,1.5854,1.5856,1.5857,0,0,0,0,0,0,1.6028,1.6019,1.5984,1.5981,1.5994,1.5962,1.5956,1.595,1.5916,1.591,1.5925,1.5922,1.5881,1.5878,1.5874,1.5882,1.5855,1.5854,1.5853,1.5855,1.5856,1.5857,0,0,0,0,0,0,1.6029,1.6025,1.5985,1.5999,1.5993,1.5962,1.5955,1.5949,1.5942,1.591,1.5904,1.5924,1.5881,1.5876,1.587,1.588,1.5853,1.5852,1.5854,1.5856,1.5857,1.5897,0,0,0,0,0,0,1.6031,1.6026,1.6029,1.6,1.5993,1.5983,1.5956,1.5949,1.594,1.5937,1.5908,1.5902,1.588,1.5872,1.5869,1.5878,1.5851,1.5853,1.5855,1.5856,1.5895,1.59,1.5904,0,0,0,0,0,1.6033,1.6042,1.6029,1.6025,1.5996,1.5984,1.598,1.5954,1.5941,1.5944,1.5924,1.5903,1.5879,1.5872,1.5868,1.5876,1.5853,1.5855,1.5856,1.5893,1.5899,1.5904,0,0,0,0,0,0,1.6072,1.6037,1.6023,1.6023,1.6007,1.5976,1.5979,1.5961,1.5947,1.5944,1.5913,1.5906,1.5904,1.5889,1.5882,1.5883,1.5863,1.5864,1.5892,1.5898,1.5902,1.5906,1.585,0,0,0,0,0,1.6081,1.6074,1.6044,1.6047,1.6039,1.6011,1.6004,1.5986,1.5967,1.596,1.5939,1.5921,1.591,1.5903,1.589,1.5892,1.5886,1.5896,1.5901,1.5904,1.5906,1.5906,1.591,1.5863,1.5863,1.5863,0,0,1.6099,1.6079,1.6077,1.6054,1.6039,1.6033,1.6005,1.5999,1.5993,1.5959,1.5953,1.5937,1.5914,1.5913,1.5911,1.5901,1.5917,1.5906,1.591,1.5909,1.5908,1.5913,1.5917,1.5864,1.5864,1.5864,0,0,1.6128,1.6113,1.6114,1.6099,1.6078,1.6059,1.6059,1.6031,1.602,1.6013,1.5987,1.598,1.596,1.5946,1.5936,1.5961,1.5941,1.5957,1.598,1.5981,1.5985,1.5988,1.5997,1.6,1.5959,1.5959,1.5959,0,1.6153,1.6143,1.6116,1.6112,1.6103,1.6072,1.6073,1.606,1.6035,1.6029,1.6018,1.5993,1.5976,1.5971,1.5977,1.597,1.5969,1.596,1.5986,1.5989,1.5992,1.6,1.6004,1.5961,1.5961,1.596,1.596,0,1.6174,1.6168,1.6171,1.6149,1.614,1.6138,1.6111,1.6105,1.6088,1.607,1.6064,1.6042,1.6025,1.6022,1.6005,1.6015,1.6009,1.5992,1.5972,1.5999,1.6006,1.6009,1.5964,1.5963,1.5962,1.5962,0,0,1.6227,1.6191,1.6193,1.6182,1.6156,1.615,1.6147,1.6131,1.6127,1.611,1.6107,1.6091,1.6076,1.6065,1.6046,1.6046,1.6068,1.603,1.6029,1.6038,1.6077,1.609,1.6094,1.6054,1.6055,1.6055,1.6079,0,1.6253,1.6246,1.6222,1.6222,1.6216,1.6186,1.6183,1.6167,1.615,1.6141,1.6122,1.6112,1.6093,1.6086,1.6085,1.6065,1.6075,1.6063,1.605,1.605,1.6057,1.6098,1.6111,1.6135,1.6082,1.6082,1.6083,0,1.6281,1.6268,1.6268,1.6242,1.6239,1.6237,1.622,1.6213,1.6193,1.6181,1.6169,1.6148,1.6142,1.6123,1.6115,1.6108,1.6101,1.609,1.609,1.6088,1.6068,1.6098,1.6142,1.6146,1.6087,1.6086,1.6086,0,1.632,1.6302,1.63,1.6292,1.6262,1.6262,1.6249,1.6229,1.6221,1.6206,1.6201,1.6186,1.6177,1.6166,1.6141,1.613,1.6136,1.6115,1.6125,1.6126,1.6128,1.6128,1.6173,1.6123,1.6123,1.6123,1.6123,0,1.6351,1.6352,1.6317,1.6316,1.6316,1.6289,1.629,1.6274,1.6257,1.6251,1.6224,1.622,1.6187,1.6179,1.6159,1.6156,1.6152,1.6142,1.6136,1.6144,1.6146,1.614,1.6137,1.6124,1.6124,1.6124,1.6123,0,1.6395,1.6372,1.6368,1.634,1.6333,1.6335,1.6311,1.6308,1.629,1.6284,1.628,1.6252,1.624,1.6215,1.6196,1.6183,1.6184,1.6174,1.6191,1.6188,1.62,1.62,1.6242,1.6247,1.6195,1.6195,1.6196,0,1.6417,1.6417,1.639,1.6385,1.6374,1.6366,1.6358,1.6331,1.6324,1.6302,1.6302,1.6289,1.6277,1.626,1.6237,1.6223,1.6213,1.6229,1.621,1.6218,1.6213,1.6214,1.6214,1.6233,1.6234,1.6234,1.6235,0,1.6458,1.6446,1.6436,1.6423,1.6415,1.6402,1.6388,1.6385,1.6355,1.6348,1.6337,1.6328,1.6309,1.6296,1.6279,1.6265,1.6245,1.6241,1.6242,1.6251,1.6261,1.6256,1.6203,1.624,1.6239,1.6239,1.6239,1.6238,1.6491,1.649,1.6471,1.6461,1.6448,1.6436,1.6433,1.6414,1.6405,1.6389,1.6373,1.6363,1.6343,1.6318,1.6305,1.6297,1.6287,1.6289,1.629,1.6291,1.6295,1.6262,1.6294,1.6293,1.6293,1.6293,1.6293,0,1.6531,1.6517,1.6509,1.6491,1.6483,1.6465,1.6449,1.6444,1.6436,1.642,1.6409,1.6396,1.6384,1.636,1.6345,1.6343,1.6334,1.634,1.634,1.6338,1.6304,1.6305,1.6348,1.6348,1.6348,1.6348,1.6348,1.6348,1.6551,1.6549,1.6535,1.6526,1.6512,1.6504,1.6496,1.6485,1.6472,1.6459,1.6449,1.6434,1.6414,1.6398,1.6386,1.6379,1.6375,1.6385,1.6376,1.6345,1.634,1.6335,1.6335,1.6384,1.6385,1.6409,1.641,1.641]}]]